Sioux Falls, SD

8:38 PM CDT on October 21, 2019 (GMT -0500)
Foss

Weather History for KFSD - August, 2019

Change the Weather History Date:

Friday, August 23, 2019

  Actual Average Record
Temperature  
Mean Temperature 68 °F 70 °F  
Max Temperature 79 °F 81 °F 100 °F (1971)
Min Temperature 57 °F 59 °F 42 °F (1927)
Degree Days  
Heating Degree Days 0 1  
Month to date heating degree days 0 10  
Since 1 June heating degree days 20 69  
Since 1 July heating degree days 0 18  
Cooling Degree Days 3 6  
Month to date cooling degree days 164 160  
Year to date cooling degree days 692 587  
Since 1 June cooling degree days 677 551  
Growing Degree Days 18 (Base 50)    
Moisture  
Dew Point 57 °F    
Average Humidity 67    
Maximum Humidity 81    
Minimum Humidity 52    
Precipitation  
Precipitation 0.00 in 0.09 in 3.28 in (1906)
Month to date precipitation 1.84 2.27  
Year to date precipitation 29.03 18.61  
Snow  
Snow 0.00 in 0.00 in 0.00 in ()
Month to date snowfall T 0.0  
Since 1 June snowfall T 0.0  
Since 1 July snowfall T 0.0  
Snow Depth 0.00 in    
Sea Level Pressure  
Sea Level Pressure 30.10 in    
Wind  
Wind Speed 10 mph ()    
Max Wind Speed 20 mph    
Max Gust Speed 27 mph    
Visibility 10.0 miles    
Events      
T = Trace of Precipitation, MM = Missing Value Source: Averaged Metar Reports

Daily Weather History Graph

Daily Weather History Graph

Search for Another Location

Airport or City:

Astronomy

Aug. 23, 2019 Rise Set
Actual Time 6:40 AM CDT 8:17 PM CDT
Civil Twilight 6:10 AM CDT 8:48 PM CDT
Nautical Twilight 5:33 AM CDT 9:24 PM CDT
Astronomical Twilight 4:53 AM CDT 10:03 PM CDT
Moon No Moon Rise 2:32 PM CDT (8/23)
Length of Visible Light 14h 37m
Length of Day
13h 37m
Waning Gibbous, 49% of the Moon is Illuminated
Aug 23
Waning Gibbous
Aug 30
New
Sep 5
First Quarter
Sep 13
Full
Sep 21
Last Quarter

Hourly Weather History & Observations

Time (CDT) Temp. Dew Point Humidity Pressure Visibility Wind Dir Wind Speed Gust Speed Precip Events Conditions
12:56 AM 62.1 °F 55.0 °F 78% 30.08 in 10.0 mi East 11.5 mph - N/A   Clear
1:56 AM 62.1 °F 54.0 °F 75% 30.08 in 10.0 mi East 11.5 mph - N/A   Clear
2:56 AM 62.1 °F 52.0 °F 70% 30.07 in 10.0 mi ESE 10.4 mph - N/A   Mostly Cloudy
3:56 AM 60.1 °F 52.0 °F 75% 30.08 in 10.0 mi East 6.9 mph - N/A   Mostly Cloudy
4:56 AM 60.1 °F 51.1 °F 72% 30.09 in 10.0 mi ESE 9.2 mph - N/A   Scattered Clouds
5:56 AM 59.0 °F 52.0 °F 78% 30.10 in 10.0 mi East 5.8 mph - N/A   Mostly Cloudy
6:56 AM 57.0 °F 51.1 °F 81% 30.11 in 10.0 mi East 8.1 mph - N/A   Partly Cloudy
7:56 AM 61.0 °F 52.0 °F 72% 30.13 in 10.0 mi East 6.9 mph - N/A   Partly Cloudy
8:56 AM 64.0 °F 52.0 °F 65% 30.13 in 10.0 mi ESE 13.8 mph - N/A   Scattered Clouds
9:56 AM 68.0 °F 55.9 °F 65% 30.13 in 10.0 mi SE 11.5 mph - N/A   Scattered Clouds
10:56 AM 71.1 °F 59.0 °F 66% 30.13 in 10.0 mi SE 11.5 mph - N/A   Mostly Cloudy
11:56 AM 73.9 °F 61.0 °F 64% 30.13 in 10.0 mi SSE 13.8 mph 19.6 mph N/A   Scattered Clouds
12:56 PM 75.0 °F 61.0 °F 62% 30.12 in 10.0 mi SE 10.4 mph - N/A   Scattered Clouds
1:56 PM 78.1 °F 62.1 °F 58% 30.10 in 10.0 mi SE 9.2 mph 24.2 mph N/A   Mostly Cloudy
2:56 PM 78.1 °F 62.1 °F 58% 30.10 in 10.0 mi SE 12.7 mph 19.6 mph N/A   Scattered Clouds
3:56 PM 79.0 °F 61.0 °F 54% 30.09 in 10.0 mi SE 13.8 mph - N/A   Mostly Cloudy
4:56 PM 78.1 °F 60.1 °F 54% 30.09 in 10.0 mi SE 15.0 mph 24.2 mph N/A   Mostly Cloudy
5:56 PM 78.1 °F 59.0 °F 52% 30.09 in 10.0 mi ESE 12.7 mph - N/A   Mostly Cloudy
6:56 PM 75.9 °F 59.0 °F 56% 30.09 in 10.0 mi ESE 13.8 mph 24.2 mph N/A   Scattered Clouds
7:56 PM 73.9 °F 60.1 °F 62% 30.09 in 10.0 mi SE 12.7 mph - N/A   Scattered Clouds
8:56 PM 72.0 °F 61.0 °F 68% 30.11 in 10.0 mi SE 9.2 mph - N/A   Scattered Clouds
9:56 PM 71.1 °F 60.1 °F 68% 30.10 in 10.0 mi SE 11.5 mph - N/A   Partly Cloudy
10:56 PM 69.1 °F 61.0 °F 75% 30.11 in 10.0 mi SE 12.7 mph 20.7 mph N/A   Partly Cloudy
11:56 PM 66.9 °F 60.1 °F 79% 30.12 in 10.0 mi SE 10.4 mph - N/A   Scattered Clouds